San Angelo, TX

6:55 PM CDT on May 22, 2018 (GMT -0500)
San Angelo Regional-Mathis

Weather History for KSJT - February, 2014

Change the Weather History Date:

Wednesday, February 5, 2014

  Actual Average Record
Temperature  
Mean Temperature 30 °F 48 °F  
Max Temperature 38 °F 62 °F 84 °F (2006)
Min Temperature 21 °F 35 °F 14 °F (1989)
Degree Days  
Heating Degree Days 35 17  
Month to date heating degree days 115 85  
Since 1 July heating degree days 1803 1629  
Cooling Degree Days 0 0  
Month to date cooling degree days 0 0  
Year to date cooling degree days 0 1  
Moisture  
Dew Point 17 °F    
Average Humidity 69    
Maximum Humidity 82    
Minimum Humidity 55    
Precipitation  
Precipitation 0.00 in 0.04 in 3.16 in (1987)
Month to date precipitation 0.06 0.20  
Year to date precipitation 0.06 1.13  
Snow  
Snow 0.00 in 0.00 in 3.00 in (1923)
Month to date snowfall 0.0 0.1  
Since 1 July snowfall 1.5 1.9  
Snow Depth 0.00 in    
Sea Level Pressure  
Sea Level Pressure 30.40 in    
Wind  
Wind Speed 17 mph (NNE)    
Max Wind Speed 24 mph    
Max Gust Speed 30 mph    
Visibility 10 miles    
Events      
T = Trace of Precipitation, MM = Missing Value Source: NWS Daily Summary

Daily Weather History Graph

Daily Weather History Graph

Search for Another Location

Airport or City:

Astronomy

Feb. 05, 2014 Rise Set
Actual Time 7:31 AM CST 6:20 PM CST
Civil Twilight 7:06 AM CST 6:45 PM CST
Nautical Twilight 6:37 AM CST 7:14 PM CST
Astronomical Twilight 6:09 AM CST 7:43 PM CST
Moon 11:14 AM CST (2/5) No Moon Set
Length of Visible Light 11h 39m
Length of Day
10h 48m
Waxing Crescent, 39% of the Moon is Illuminated
Feb 5
Waxing Crescent
Feb 6
First Quarter
Feb 14
Full
Feb 22
Last Quarter
Mar 1
New

Hourly Weather History & Observations

Time (CST) Temp. Windchill Dew Point Humidity Pressure Visibility Wind Dir Wind Speed Gust Speed Precip Events Conditions
12:51 AM 36.0 °F 28.0 °F 30.0 °F 79% 30.16 in 10.0 mi NE 11.5 mph - N/A   Clear
1:51 AM 35.1 °F 25.9 °F 28.0 °F 76% 30.18 in 10.0 mi NE 13.8 mph - N/A   Clear
2:51 AM 34.0 °F 23.8 °F 28.0 °F 79% 30.22 in 10.0 mi NNE 16.1 mph - N/A   Mostly Cloudy
3:15 AM 34.0 °F 21.5 °F 27.0 °F 75% 30.22 in 10.0 mi NNE 24.2 mph 27.6 mph N/A   Overcast
3:27 AM 32.0 °F 20.1 °F 27.0 °F 82% 30.22 in 10.0 mi NNE 19.6 mph 27.6 mph N/A   Overcast
3:51 AM 32.0 °F 22.5 °F 26.1 °F 79% 30.24 in 10.0 mi NE 12.7 mph - N/A   Overcast
4:24 AM 30.9 °F 21.7 °F 24.1 °F 76% 30.26 in 10.0 mi NE 11.5 mph - N/A   Overcast
4:51 AM 30.0 °F 18.3 °F 21.9 °F 72% 30.28 in 10.0 mi NE 17.3 mph - N/A   Overcast
5:51 AM 28.9 °F 17.7 °F 21.0 °F 72% 30.34 in 10.0 mi NE 15.0 mph - N/A   Overcast
6:51 AM 28.0 °F 15.7 °F 21.0 °F 75% 30.38 in 10.0 mi NNE 17.3 mph 24.2 mph N/A   Overcast
7:51 AM 28.0 °F 14.9 °F 21.0 °F 75% 30.41 in 10.0 mi NNE 19.6 mph 24.2 mph N/A   Overcast
8:51 AM 27.0 °F 12.8 °F 18.0 °F 69% 30.45 in 10.0 mi NNE 21.9 mph - N/A   Overcast
9:51 AM 26.1 °F 12.3 °F 15.1 °F 63% 30.52 in 10.0 mi NNE 19.6 mph - N/A   Scattered Clouds
10:51 AM 25.0 °F 11.3 °F 14.0 °F 63% 30.52 in 10.0 mi NNE 18.4 mph - N/A   Clear
11:51 AM 27.0 °F 13.5 °F 14.0 °F 58% 30.50 in 10.0 mi NE 19.6 mph - N/A   Clear
12:51 PM 27.0 °F 13.2 °F 12.9 °F 56% 30.48 in 10.0 mi NNE 20.7 mph 25.3 mph N/A   Clear
1:51 PM 26.1 °F 14.0 °F 12.0 °F 55% 30.45 in 10.0 mi NE 15.0 mph - N/A   Clear
2:51 PM 26.1 °F 12.3 °F 12.0 °F 55% 30.43 in 10.0 mi NE 19.6 mph - N/A   Clear
3:51 PM 26.1 °F 13.6 °F 12.0 °F 55% 30.43 in 10.0 mi NNE 16.1 mph - N/A   Clear
4:51 PM 25.0 °F 12.2 °F 12.9 °F 60% 30.44 in 10.0 mi NNE 16.1 mph - N/A   Clear
5:51 PM 24.1 °F 11.0 °F 12.9 °F 62% 30.45 in 10.0 mi NE 16.1 mph - N/A   Clear
6:51 PM 23.0 °F 10.1 °F 12.9 °F 65% 30.47 in 10.0 mi NE 15.0 mph - N/A   Clear
7:51 PM 21.9 °F 7.3 °F 12.9 °F 68% 30.50 in 10.0 mi NNE 18.4 mph - N/A   Scattered Clouds
8:09 PM 21.9 °F 6.9 °F 12.9 °F 68% 30.43 in 10.0 mi NNE 19.6 mph - N/A   Mostly Cloudy
8:19 PM 21.9 °F 7.8 °F 12.9 °F 68% 30.43 in 10.0 mi NNE 17.3 mph - N/A   Partly Cloudy
8:41 PM 21.9 °F 8.2 °F 12.9 °F 68% 30.43 in 10.0 mi NNE 16.1 mph - N/A   Mostly Cloudy
8:51 PM 21.9 °F 8.7 °F 12.9 °F 68% 30.49 in 10.0 mi NNE 15.0 mph - N/A   Mostly Cloudy
9:46 PM 21.2 °F 6.0 °F 12.2 °F 68% 30.43 in 10.0 mi NNE 19.6 mph - N/A   Overcast
9:51 PM 21.0 °F 6.2 °F 12.9 °F 71% 30.51 in 10.0 mi NNE 18.4 mph - N/A   Overcast
10:51 PM 21.0 °F 6.2 °F 12.0 °F 68% 30.51 in 10.0 mi NE 18.4 mph - N/A   Overcast
11:30 PM 21.0 °F 7.1 °F 12.9 °F 71% 30.43 in 10.0 mi NNE 16.1 mph - N/A   Overcast
11:51 PM 21.0 °F 7.6 °F 12.9 °F 71% 30.51 in 10.0 mi NE 15.0 mph - N/A   Overcast